| time (UTC) | temp C | wind direction | speed KPH | gust KPH | rain 1hr cm | rain 24hr cm | rain mn cm | humidity % | barometer mb |
| 20260507073026 | 17 | 293 | 0.0 | 6.4 | 0.00 | 0.15 | 0.00 | 70 | 1012.2 |
| 20260507071525 | 16 | 282 | 0.0 | 3.2 | 0.00 | 0.15 | 0.00 | 71 | 1012.1 |
| 20260507070033 | 16 | 292 | 0.0 | 6.4 | 0.00 | 0.15 | 0.00 | 72 | 1011.9 |
| 20260507064518 | 16 | 297 | 0.0 | 6.4 | 0.00 | 0.23 | 0.00 | 73 | 1011.9 |
| 20260507063015 | 15 | 289 | 0.0 | 3.2 | 0.00 | 0.23 | 0.00 | 76 | 1011.8 |
| 20260507061513 | 15 | 231 | 0.0 | 6.4 | 0.00 | 0.23 | 0.00 | 78 | 1011.7 |
| 20260507060018 | 13 | 281 | 0.0 | 3.2 | 0.00 | 0.23 | 0.00 | 84 | 1011.5 |
| 20260507054509 | 12 | 266 | 0.0 | 3.2 | 0.00 | 0.33 | 0.00 | 88 | 1011.4 |
| 20260507053007 | 12 | 263 | 0.0 | 0.0 | 0.00 | 0.33 | 0.00 | 90 | 1011.3 |
| 20260507051505 | 11 | 263 | 0.0 | 0.0 | 0.00 | 0.33 | 0.00 | 91 | 1011.1 |
| 20260507050012 | 11 | 263 | 0.0 | 0.0 | 0.00 | 0.33 | 0.00 | 90 | 1010.9 |
| 20260507044502 | 11 | 263 | 0.0 | 0.0 | 0.00 | 0.71 | 0.00 | 89 | 1010.7 |
| 20260507043002 | 11 | 263 | 0.0 | 0.0 | 0.00 | 0.71 | 0.00 | 88 | 1010.6 |
| 20260507041559 | 11 | 263 | 0.0 | 0.0 | 0.00 | 0.71 | 0.00 | 87 | 1010.5 |
| 20260507040105 | 11 | 263 | 0.0 | 0.0 | 0.00 | 0.71 | 0.00 | 87 | 1010.3 |
| 20260507034602 | 11 | 263 | 0.0 | 1.6 | 0.00 | 0.71 | 0.00 | 86 | 1010.3 |
| 20260507033105 | 12 | 271 | 0.0 | 0.0 | 0.00 | 0.71 | 0.00 | 87 | 1010.2 |
| 20260507031600 | 12 | 271 | 0.0 | 0.0 | 0.00 | 0.71 | 0.00 | 86 | 1010.2 |
| 20260507030107 | 12 | 271 | 0.0 | 0.0 | 0.00 | 0.71 | 0.00 | 85 | 1010.2 |
| 20260507024606 | 12 | 271 | 0.0 | 1.6 | 0.00 | 0.89 | 0.00 | 86 | 1010.1 |
| 20260507023049 | 12 | 157 | 0.0 | 0.0 | 0.00 | 0.89 | 0.00 | 85 | 1010.1 |
| 20260507021554 | 12 | 155 | 0.0 | 0.0 | 0.00 | 0.89 | 0.00 | 85 | 1010.2 |
| 20260507020056 | 12 | 155 | 0.0 | 0.0 | 0.00 | 0.89 | 0.00 | 84 | 1010.2 |
| 20260507014552 | 12 | 155 | 0.0 | 0.0 | 0.00 | 1.12 | 0.00 | 83 | 1010.1 |
| 20260507013042 | 13 | 155 | 0.0 | 0.0 | 0.00 | 1.12 | 0.00 | 82 | 1009.9 |
| 20260507011546 | 13 | 155 | 0.0 | 0.0 | 0.00 | 1.12 | 0.00 | 81 | 1009.9 |
| 20260507010043 | 13 | 155 | 0.0 | 1.6 | 0.00 | 1.12 | 0.00 | 81 | 1009.8 |
| 20260507004536 | 13 | 195 | 0.0 | 0.0 | 0.00 | 1.12 | 0.00 | 81 | 1009.7 |
| 20260507003036 | 13 | 175 | 0.0 | 0.0 | 0.00 | 1.12 | 0.00 | 80 | 1009.8 |
| 20260507001536 | 13 | 173 | 0.0 | 1.6 | 0.00 | 1.12 | 0.00 | 80 | 1009.8 |
| 20260507000134 | 13 | 157 | 0.0 | 0.0 | 0.00 | 1.12 | 0.00 | 80 | 1009.8 |
| 20260506234541 | 13 | 157 | 0.0 | 1.6 | 0.00 | 1.12 | 0.00 | 79 | 1009.9 |
| 20260506233032 | 13 | 242 | 0.0 | 0.0 | 0.00 | 1.12 | 0.00 | 79 | 1009.8 |
| 20260506231533 | 13 | 243 | 0.0 | 1.6 | 0.00 | 1.12 | 0.00 | 79 | 1009.8 |
| 20260506230028 | 14 | 140 | 0.0 | 0.0 | 0.00 | 1.12 | 0.00 | 79 | 1009.7 |
| 20260506224527 | 14 | 140 | 0.0 | 0.0 | 0.00 | 1.12 | 0.00 | 78 | 1009.7 |
| 20260506223026 | 14 | 140 | 0.0 | 3.2 | 0.00 | 1.12 | 0.00 | 79 | 1009.8 |
| 20260506221523 | 15 | 146 | 0.0 | 0.0 | 0.00 | 1.12 | 0.00 | 79 | 1009.8 |
| 20260506220021 | 15 | 146 | 0.0 | 3.2 | 0.00 | 1.12 | 0.00 | 77 | 1009.9 |
| 20260506214520 | 15 | 138 | 0.0 | 0.0 | 0.00 | 1.12 | 1.12 | 77 | 1009.6 |
| 20260506213019 | 15 | 138 | 0.0 | 3.2 | 0.00 | 1.12 | 1.12 | 76 | 1009.6 |
| 20260506211522 | 16 | 140 | 0.0 | 3.2 | 0.00 | 1.12 | 1.12 | 76 | 1009.4 |
| 20260506210019 | 16 | 140 | 0.0 | 3.2 | 0.00 | 1.12 | 1.12 | 76 | 1009.3 |
| 20260506204517 | 16 | 135 | 0.0 | 3.2 | 0.00 | 1.12 | 1.12 | 76 | 1009.2 |
| 20260506203016 | 16 | 121 | 0.0 | 4.8 | 0.00 | 1.12 | 1.12 | 76 | 1009.0 |
| 20260506201518 | 16 | 157 | 0.0 | 4.8 | 0.00 | 1.12 | 1.12 | 77 | 1009.1 |
| 20260506200015 | 17 | 135 | 0.0 | 9.7 | 0.00 | 1.12 | 1.12 | 78 | 1008.9 |
| 20260506194514 | 17 | 109 | 1.6 | 6.4 | 0.00 | 1.12 | 1.12 | 79 | 1008.7 |
| 20260506193015 | 17 | 165 | 0.0 | 6.4 | 0.00 | 1.12 | 1.12 | 79 | 1008.5 |
| 20260506191512 | 17 | 154 | 1.6 | 8.0 | 0.00 | 1.12 | 1.12 | 80 | 1008.2 |
| 20260506190011 | 17 | 144 | 0.0 | 9.7 | 0.00 | 1.12 | 1.12 | 80 | 1008.0 |
| 20260506184511 | 17 | 123 | 1.6 | 11.3 | 0.00 | 1.12 | 1.12 | 81 | 1007.8 |
| 20260506183012 | 17 | 121 | 1.6 | 6.4 | 0.00 | 1.12 | 1.12 | 82 | 1007.8 |
| 20260506181509 | 18 | 133 | 1.6 | 6.4 | 0.00 | 1.12 | 1.12 | 81 | 1007.7 |
| 20260506180013 | 18 | 136 | 0.0 | 6.4 | 0.00 | 1.12 | 1.12 | 81 | 1007.5 |
| 20260506174508 | 18 | 134 | 0.0 | 6.4 | 0.00 | 1.12 | 1.12 | 80 | 1007.4 |
| 20260506173016 | 18 | 145 | 0.0 | 11.3 | 0.00 | 1.12 | 1.12 | 80 | 1007.3 |
| 20260506171506 | 18 | 198 | 0.0 | 14.5 | 0.00 | 1.12 | 1.12 | 80 | 1007.1 |
| 20260506170005 | 18 | 165 | 1.6 | 8.0 | 0.00 | 1.12 | 1.12 | 81 | 1007.0 |
| 20260506164505 | 19 | 227 | 1.6 | 11.3 | 0.00 | 1.12 | 1.12 | 81 | 1007.0 |
| 20260506163005 | 19 | 142 | 0.0 | 12.9 | 0.00 | 1.12 | 1.12 | 81 | 1007.0 |
| 20260506161503 | 19 | 123 | 0.0 | 8.0 | 0.00 | 1.12 | 1.12 | 81 | 1007.1 |
| 20260506160005 | 20 | 133 | 3.2 | 16.1 | 0.00 | 1.12 | 1.12 | 80 | 1007.2 |
| 20260506154503 | 20 | 173 | 0.0 | 6.4 | 0.00 | 1.12 | 1.12 | 79 | 1007.2 |
| 20260506153002 | 20 | 122 | 1.6 | 6.4 | 0.00 | 1.12 | 1.12 | 78 | 1007.2 |
| 20260506151603 | 20 | 144 | 1.6 | 9.7 | 0.00 | 1.12 | 1.12 | 78 | 1007.0 |
| 20260506144559 | 20 | 143 | 1.6 | 12.9 | 0.00 | 1.12 | 1.12 | 78 | 1007.1 |
| 20260506143057 | 20 | 115 | 1.6 | 12.9 | 0.00 | 1.12 | 1.12 | 80 | 1007.1 |
| 20260506141554 | 19 | 107 | 1.6 | 8.0 | 0.00 | 1.12 | 1.12 | 80 | 1007.4 |
| 20260506140052 | 19 | 134 | 1.6 | 11.3 | 0.00 | 1.12 | 1.12 | 81 | 1007.6 |
| 20260506134550 | 19 | 134 | 0.0 | 6.4 | 0.00 | 1.12 | 1.12 | 82 | 1007.7 |
| 20260506133049 | 19 | 157 | 3.2 | 14.5 | 0.00 | 1.12 | 1.12 | 81 | 1007.8 |
| 20260506131553 | 18 | 133 | 0.0 | 3.2 | 0.03 | 1.12 | 1.12 | 88 | 1007.9 |
| 20260506130100 | 18 | 134 | 0.0 | 4.8 | 0.03 | 1.12 | 1.12 | 89 | 1008.0 |
| 20260506124553 | 17 | 277 | 0.0 | 1.6 | 0.03 | 1.12 | 1.12 | 88 | 1008.0 |
| 20260506123044 | 18 | 263 | 1.6 | 14.5 | 0.03 | 1.12 | 1.12 | 84 | 1008.2 |
| 20260506121543 | 20 | 273 | 1.6 | 14.5 | 0.00 | 1.09 | 1.09 | 81 | 1008.2 |
| 20260506120041 | 20 | 121 | 1.6 | 11.3 | 0.00 | 1.09 | 1.09 | 81 | 1007.8 |
| 20260506114539 | 20 | 140 | 0.0 | 6.4 | 0.00 | 1.09 | 1.09 | 82 | 1008.0 |
| 20260506113040 | 20 | 117 | 0.0 | 16.1 | 0.00 | 1.09 | 1.09 | 84 | 1008.0 |
| 20260506111530 | 19 | 142 | 4.8 | 14.5 | 0.00 | 1.09 | 1.09 | 88 | 1008.1 |
| 20260506110027 | 18 | 118 | 4.8 | 16.1 | 0.00 | 1.09 | 1.09 | 93 | 1008.3 |
| 20260506104527 | 18 | 119 | 0.0 | 12.9 | 0.00 | 1.12 | 1.09 | 97 | 1008.4 |
| 20260506103022 | 17 | 109 | 3.2 | 19.3 | 0.00 | 1.12 | 1.09 | 98 | 1008.7 |
| 20260506101533 | 17 | 130 | 0.0 | 16.1 | 0.05 | 1.12 | 1.09 | 98 | 1008.7 |
| 20260506100015 | 16 | 111 | 0.0 | 12.9 | 0.05 | 1.12 | 1.09 | 98 | 1008.7 |
| 20260506094522 | 16 | 124 | 0.0 | 14.5 | 0.08 | 1.19 | 1.09 | 98 | 1008.6 |
| 20260506093014 | 16 | 130 | 0.0 | 3.2 | 0.08 | 1.19 | 1.09 | 98 | 1008.7 |
| 20260506091507 | 16 | 132 | 0.0 | 6.4 | 0.05 | 1.17 | 1.07 | 98 | 1008.9 |
| 20260506090006 | 15 | 132 | 0.0 | 12.9 | 0.05 | 1.14 | 1.04 | 98 | 1008.9 |
| 20260506084504 | 15 | 149 | 0.0 | 1.6 | 0.03 | 1.12 | 1.02 | 98 | 1009.1 |
| 20260506083004 | 15 | 138 | 0.0 | 3.2 | 0.03 | 1.12 | 1.02 | 98 | 1009.2 |
| 20260506081602 | 15 | 128 | 0.0 | 3.2 | 0.03 | 1.09 | 0.99 | 98 | 1008.9 |
| 20260506081501 | 15 | 126 | 0.0 | 3.2 | 0.03 | 1.09 | 0.99 | 98 | 1008.8 |